DG5MNJ Weather Reports


Display with metric or nautical units.
time (UTC)temp
F
wind
direction
speed
MPH
gust
MPH
rain 1hr
in
rain 24hr
in
rain mn
in
humidity
%
barometer
mb
20260506090501 62 290 2.0 3.0 0.00 0.27 0.01 63 1004.2
20260506090001 63 170 2.0 3.0 0.00 0.27 0.01 61 1004.2
20260506085501 62 348 3.0 4.0 0.00 0.27 0.01 64 1004.3
20260506085021 62 345 4.0 5.0 0.00 0.27 0.01 62 1004.4
20260506084501 62 352 3.0 4.0 0.00 0.27 0.01 61 1004.4
20260506084003 61 78 3.0 6.0 0.00 0.27 0.01 63 1004.3
20260506083502 62 40 6.0 7.0 0.00 0.27 0.01 64 1004.3
20260506083002 62 248 2.0 3.0 0.00 0.27 0.01 63 1004.4
20260506082502 62 352 5.0 7.0 0.00 0.27 0.01 63 1004.5
20260506082002 63 172 2.0 4.0 0.00 0.27 0.01 61 1004.6
20260506081522 62 280 3.0 4.0 0.00 0.27 0.01 63 1004.5
20260506081022 63 335 2.0 4.0 0.00 0.27 0.01 60 1004.6
20260506080502 62 358 2.0 3.0 0.00 0.27 0.01 64 1004.6
20260506073502 61 55 4.0 5.0 0.00 0.27 0.01 61 1004.7
20260506073002 62 28 2.0 5.0 0.00 0.27 0.01 62 1004.8
20260506072502 63 72 3.0 4.0 0.00 0.27 0.01 63 1004.6
20260506072002 64 298 2.0 2.0 0.00 0.27 0.01 65 1004.8
20260506071503 62 245 1.0 1.0 0.00 0.27 0.01 67 1005.0
20260506071002 62 252 1.0 1.0 0.00 0.27 0.00 64 1005.0
20260506070502 61 275 1.0 1.0 0.00 0.27 0.00 68 1004.9
20260506062502 57 105 2.0 2.0 0.00 0.27 0.00 84 1005.2
20260506062002 57 360 1.0 1.0 0.00 0.27 0.00 85 1005.2
20260506061502 56 288 1.0 1.0 0.00 0.27 0.00 85 1005.1
20260506061002 56 155 2.0 2.0 0.00 0.27 0.00 86 1005.4
20260506060502 56 258 1.0 1.0 0.00 0.27 0.00 86 1005.4
20260506051002 52 222 2.0 2.0 0.00 0.27 0.00 92 1005.6
20260506050502 51 250 1.0 2.0 0.00 0.27 0.00 93 1005.7
20260506045002 50 238 2.0 2.0 0.00 0.27 0.00 94 1005.4
20260506044501 50 218 2.0 2.0 0.00 0.27 0.00 94 1005.3
20260506044003 50 210 1.0 2.0 0.00 0.27 0.00 94 1005.3
20260506043501 50 235 1.0 1.0 0.00 0.27 0.00 94 1005.4
20260506043002 50 222 2.0 2.0 0.00 0.27 0.00 94 1005.4
20260506042501 50 250 1.0 1.0 0.00 0.27 0.00 94 1005.6
20260506042002 50 250 1.0 1.0 0.00 0.27 0.00 94 1005.6
20260506041522 50 205 1.0 1.0 0.00 0.27 0.00 94 1005.8
20260506041002 50 232 1.0 2.0 0.00 0.27 0.00 94 1005.7
20260506040501 50 215 1.0 2.0 0.00 0.27 0.00 94 1005.8
20260506040002 50 235 0.0 1.0 0.00 0.27 0.00 93 1005.8
20260506035502 50 208 1.0 2.0 0.00 0.27 0.00 93 1005.7
20260506035002 50 222 1.0 1.0 0.00 0.27 0.00 93 1005.7
20260506034501 50 235 1.0 1.0 0.00 0.27 0.00 93 1005.7
20260506034002 50 238 1.0 1.0 0.00 0.27 0.00 93 1005.8
20260506033502 50 155 2.0 3.0 0.00 0.27 0.00 93 1005.9
20260506033002 50 200 2.0 3.0 0.00 0.27 0.00 92 1005.9
20260506032501 50 202 2.0 2.0 0.00 0.27 0.00 92 1006.0
20260506032001 51 122 3.0 4.0 0.00 0.27 0.00 91 1006.0
20260506031501 51 202 2.0 2.0 0.00 0.27 0.00 91 1006.0
20260506031001 51 125 2.0 3.0 0.00 0.27 0.00 91 1006.2
20260506030501 51 120 2.0 3.0 0.00 0.27 0.00 91 1006.2
20260506030001 51 190 2.0 2.0 0.00 0.27 0.00 91 1006.4
20260506025502 51 158 2.0 3.0 0.00 0.27 0.00 91 1006.4
20260506025002 51 155 2.0 2.0 0.00 0.27 0.00 92 1006.5
20260506024502 50 180 2.0 2.0 0.00 0.27 0.00 92 1006.5
20260506024001 50 240 2.0 2.0 0.00 0.27 0.00 92 1006.4
20260506023502 50 215 2.0 3.0 0.00 0.27 0.00 92 1006.5
20260506023001 50 160 3.0 3.0 0.00 0.27 0.00 93 1006.5
20260506022521 50 228 1.0 2.0 0.00 0.27 0.00 93 1006.5
20260506022001 50 208 2.0 2.0 0.00 0.27 0.00 94 1006.4
20260506021522 50 140 2.0 3.0 0.00 0.27 0.00 94 1006.1
20260506021001 50 145 3.0 4.0 0.00 0.27 0.00 93 1006.3
20260506020521 50 170 2.0 2.0 0.00 0.27 0.00 94 1006.3
20260506020021 50 175 2.0 2.0 0.00 0.27 0.00 94 1006.4
20260506015501 50 228 2.0 3.0 0.00 0.27 0.00 94 1006.3
20260506015021 50 182 2.0 2.0 0.00 0.27 0.00 94 1006.2
20260506014501 50 208 2.0 2.0 0.00 0.27 0.00 94 1006.4
20260506014001 50 215 2.0 2.0 0.00 0.27 0.00 95 1006.4
20260506013521 50 188 2.0 2.0 0.00 0.27 0.00 95 1006.5
20260506013001 50 158 2.0 2.0 0.00 0.27 0.00 95 1006.5
20260506012501 50 162 2.0 2.0 0.00 0.27 0.00 95 1006.5
20260506012001 51 148 2.0 2.0 0.00 0.27 0.00 94 1006.7
20260506011501 51 208 1.0 1.0 0.00 0.27 0.00 94 1006.4
20260506011001 51 222 1.0 1.0 0.00 0.27 0.00 94 1006.6
20260506010501 51 242 0.0 1.0 0.00 0.27 0.00 94 1006.5
20260506010001 51 250 1.0 3.0 0.00 0.27 0.00 94 1006.5
20260506005501 51 195 2.0 2.0 0.00 0.27 0.00 94 1006.5
20260506005001 51 222 1.0 2.0 0.00 0.27 0.00 94 1006.5
20260506004501 51 222 1.0 1.0 0.00 0.27 0.00 94 1006.5
20260506004021 51 175 1.0 1.0 0.00 0.27 0.00 95 1006.6
20260506003501 51 238 1.0 2.0 0.00 0.27 0.00 95 1006.6
20260506003001 51 230 2.0 2.0 0.00 0.27 0.00 95 1006.7
20260506002502 51 192 3.0 4.0 0.00 0.27 0.00 95 1006.7
20260506002001 51 238 1.0 2.0 0.00 0.27 0.00 95 1006.7
20260506001521 51 230 4.0 4.0 0.00 0.27 0.00 95 1006.8
20260506001001 52 258 2.0 2.0 0.00 0.27 0.00 94 1006.8
20260506000501 52 210 3.0 4.0 0.00 0.27 0.00 94 1007.0
20260506000021 52 215 3.0 3.0 0.00 0.26 0.00 94 1006.8
20260505235502 52 178 4.0 6.0 0.00 0.26 0.00 94 1006.9
20260505235002 52 192 3.0 4.0 0.00 0.26 0.00 94 1007.2
20260505234522 52 202 2.0 2.0 0.00 0.26 0.00 94 1007.0
20260505234002 52 205 3.0 4.0 0.00 0.26 0.00 94 1007.3
20260505233502 52 182 4.0 5.0 0.00 0.26 0.00 95 1007.3
20260505233002 52 240 4.0 5.0 0.00 0.26 0.00 95 1007.0
20260505232502 52 242 2.0 4.0 0.00 0.26 0.00 95 1007.0
20260505232002 52 218 3.0 6.0 0.00 0.26 0.00 95 1007.2
20260505231502 52 232 5.0 5.0 0.00 0.26 0.00 95 1007.3
20260505231002 52 192 6.0 6.0 0.00 0.26 0.00 95 1007.3
20260505230502 53 208 4.0 4.0 0.00 0.26 0.00 95 1007.3
20260505230002 53 225 3.0 3.0 0.00 0.26 0.00 95 1007.4
20260505225502 53 260 4.0 6.0 0.00 0.26 0.00 95 1007.3
20260505225002 53 190 4.0 5.0 0.01 0.26 0.00 94 1007.3
20260505224502 53 212 3.0 4.0 0.02 0.26 0.00 94 1007.0
20260505224002 53 238 4.0 4.0 0.03 0.26 0.00 94 1007.0
20260505223502 53 242 3.0 5.0 0.04 0.26 0.00 94 1007.3
20260505223002 53 208 6.0 7.0 0.04 0.26 0.00 94 1007.3
20260505222502 53 218 4.0 7.0 0.05 0.26 0.00 94 1007.3
20260505222002 53 248 3.0 5.0 0.05 0.26 0.00 94 1007.4
20260505221502 53 215 6.0 7.0 0.06 0.26 0.00 94 1007.6
20260505221003 53 225 6.0 9.0 0.06 0.26 0.00 94 1007.6
20260505220502 53 210 4.0 6.0 0.10 0.26 0.00 94 1007.5
20260505220003 53 230 7.0 8.0 0.12 0.26 0.00 94 1007.6
20260505215522 53 232 5.0 7.0 0.13 0.26 0.00 95 1007.6
20260505215022 53 220 6.0 9.0 0.13 0.26 0.26 95 1007.7
20260505214523 53 238 6.0 12.0 0.13 0.26 0.26 96 1007.7
20260505214002 53 248 8.0 10.0 0.12 0.25 0.25 95 1007.7
20260505213502 53 250 6.0 9.0 0.11 0.24 0.24 95 1007.7
20260505213022 53 242 5.0 8.0 0.10 0.23 0.23 95 1007.6
20260505212502 53 222 6.0 6.0 0.09 0.22 0.22 95 1007.8
20260505212002 53 230 6.0 7.0 0.09 0.21 0.21 94 1007.5
20260505211502 53 218 4.0 5.0 0.08 0.21 0.21 94 1007.4
20260505211002 53 240 3.0 6.0 0.08 0.21 0.21 94 1007.3
20260505210502 53 310 4.0 9.0 0.07 0.20 0.20 93 1007.4
20260505210002 54 280 9.0 11.0 0.04 0.16 0.16 92 1007.3
20260505205503 54 218 13.0 13.0 0.02 0.15 0.15 90 1007.3
20260505205002 55 250 5.0 12.0 0.00 0.13 0.13 90 1007.3
20260505204502 55 262 7.0 9.0 0.00 0.13 0.13 89 1007.0
20260505204002 56 240 10.0 11.0 0.00 0.13 0.13 88 1007.0
20260505203522 56 255 6.0 12.0 0.00 0.13 0.13 86 1006.9
20260505203002 56 280 5.0 5.0 0.00 0.13 0.13 86 1006.8
20260505202522 56 208 7.0 10.0 0.00 0.13 0.13 85 1007.0
20260505202002 57 232 5.0 11.0 0.00 0.13 0.13 83 1006.7
20260505201502 57 260 8.0 11.0 0.00 0.13 0.13 82 1006.6
20260505201001 57 228 4.0 7.0 0.00 0.13 0.13 81 1006.5
20260505200501 57 288 6.0 13.0 0.00 0.13 0.13 82 1006.4
20260505200002 57 285 2.0 2.0 0.00 0.13 0.13 86 1006.0
20260505195502 57 285 2.0 2.0 0.00 0.13 0.13 87 1005.8
20260505195001 57 248 4.0 5.0 0.00 0.13 0.13 87 1005.8
20260505194502 58 232 3.0 4.0 0.00 0.13 0.13 84 1005.6
20260505194002 58 232 2.0 2.0 0.00 0.13 0.13 84 1005.6
20260505193502 58 222 1.0 2.0 0.00 0.13 0.13 85 1005.3
20260505193001 58 232 1.0 1.0 0.00 0.13 0.13 86 1005.6
20260505192521 58 202 2.0 2.0 0.00 0.13 0.13 86 1005.3
20260505192002 58 205 2.0 3.0 0.00 0.13 0.13 83 1005.3
20260505191501 58 225 2.0 2.0 0.00 0.13 0.13 80 1005.2
20260505191001 58 255 0.0 1.0 0.00 0.13 0.13 80 1005.1
20260505190502 58 262 0.0 1.0 0.00 0.13 0.13 80 1004.9
20260505190002 58 238 2.0 3.0 0.00 0.13 0.13 80 1005.1
20260505185501 58 232 2.0 2.0 0.00 0.13 0.13 79 1005.0
20260505185003 59 242 3.0 4.0 0.00 0.13 0.13 78 1005.1
20260505184501 59 238 2.0 2.0 0.00 0.13 0.13 78 1004.9
20260505184021 59 258 3.0 4.0 0.00 0.13 0.13 78 1004.9
20260505183501 59 280 2.0 3.0 0.00 0.13 0.13 78 1005.0
20260505183002 59 272 2.0 6.0 0.00 0.13 0.13 78 1004.8
20260505182501 59 318 3.0 5.0 0.00 0.13 0.13 79 1004.7
20260505182001 59 280 2.0 3.0 0.00 0.13 0.13 80 1004.8
20260505181501 59 258 4.0 5.0 0.00 0.13 0.13 83 1004.7
20260505181001 59 288 4.0 7.0 0.00 0.13 0.13 83 1004.8
20260505180501 59 280 3.0 6.0 0.00 0.13 0.13 83 1004.6
20260505180021 60 280 3.0 5.0 0.00 0.13 0.13 82 1004.6
20260505175501 60 295 3.0 5.0 0.00 0.13 0.13 82 1004.4
20260505175021 61 295 4.0 4.0 0.00 0.13 0.13 80 1004.2
20260505174501 61 262 3.0 5.0 0.00 0.13 0.13 78 1004.2
20260505174001 62 308 6.0 9.0 0.00 0.13 0.13 76 1004.3
20260505173501 62 328 4.0 4.0 0.00 0.13 0.13 77 1004.3
20260505173001 62 348 5.0 6.0 0.00 0.13 0.13 75 1003.9
20260505172522 63 300 5.0 8.0 0.00 0.13 0.13 74 1003.9
20260505172002 63 330 2.0 3.0 0.00 0.13 0.13 74 1004.1
20260505171501 64 285 2.0 3.0 0.00 0.13 0.13 74 1004.1
20260505171002 63 330 2.0 3.0 0.00 0.13 0.13 75 1003.9
20260505170501 63 358 3.0 4.0 0.00 0.13 0.13 76 1003.9
20260505170002 62 338 4.0 4.0 0.00 0.13 0.13 76 1004.1
20260505165501 62 335 3.0 5.0 0.00 0.13 0.13 76 1003.9
20260505165002 62 342 6.0 7.0 0.00 0.13 0.13 75 1004.1
20260505164501 62 348 2.0 2.0 0.00 0.13 0.13 79 1003.9
20260505164002 62 308 2.0 2.0 0.00 0.13 0.13 80 1004.2
20260505163501 62 335 3.0 4.0 0.00 0.13 0.13 79 1004.1
20260505163001 62 22 5.0 6.0 0.00 0.13 0.13 78 1004.2
20260505162502 62 288 3.0 4.0 0.00 0.13 0.13 78 1004.2
20260505162001 60 278 3.0 4.0 0.01 0.13 0.13 80 1004.3
20260505161501 60 350 2.0 3.0 0.01 0.13 0.13 81 1004.1
20260505161022 60 35 3.0 4.0 0.01 0.13 0.13 81 1004.2
20260505160502 59 330 4.0 4.0 0.03 0.13 0.13 83 1004.2
20260505153003 58 205 3.0 3.0 0.10 0.13 0.13 86 1004.6
20260505152521 58 270 1.0 2.0 0.12 0.13 0.13 87 1004.6
20260505152001 57 260 2.0 3.0 0.13 0.13 0.13 88 1004.9
20260505151502 57 210 2.0 2.0 0.12 0.12 0.12 87 1004.8
20260505151002 57 230 1.0 2.0 0.12 0.12 0.12 89 1005.0
20260505150502 57 212 2.0 3.0 0.12 0.12 0.12 88 1004.9
20260505140502 71 255 6.0 6.0 0.00 0.00 0.00 44 1003.4
20260505124502 74 5 4.0 5.0 0.00 0.00 0.00 38 1003.4
20260505123502 74 15 5.0 8.0 0.00 0.00 0.00 38 1003.6
20260505123002 74 218 4.0 5.0 0.00 0.00 0.00 38 1003.5
20260505122522 74 248 2.0 3.0 0.00 0.00 0.00 38 1003.7
20260505122002 74 170 4.0 6.0 0.00 0.00 0.00 38 1003.6
20260505121502 75 245 2.0 2.0 0.00 0.00 0.00 38 1003.6
20260505121022 75 42 3.0 3.0 0.00 0.00 0.00 37 1003.5
20260505120502 75 20 6.0 9.0 0.00 0.00 0.00 38 1003.6
20260505120002 74 18 3.0 6.0 0.00 0.00 0.00 38 1003.7
20260505115502 74 308 6.0 6.0 0.00 0.00 0.00 38 1003.8
20260505115002 74 302 3.0 8.0 0.00 0.00 0.00 38 1003.7
20260505114501 74 22 6.0 8.0 0.00 0.00 0.00 38 1003.8
20260505114001 75 320 3.0 3.0 0.00 0.00 0.00 36 1003.8
20260505113502 75 258 2.0 2.0 0.00 0.00 0.00 36 1003.7
20260505113022 75 295 2.0 4.0 0.00 0.00 0.00 36 1003.9
20260505112502 73 218 1.0 2.0 0.00 0.00 0.00 38 1003.8
20260505112002 73 262 3.0 4.0 0.00 0.00 0.00 38 1004.2
20260505111502 72 280 3.0 9.0 0.00 0.00 0.00 39 1004.2
20260505111001 72 335 6.0 7.0 0.00 0.00 0.00 40 1004.3
20260505110522 72 80 3.0 4.0 0.00 0.00 0.00 40 1004.3
20260505102001 73 58 2.0 4.0 0.00 0.00 0.00 38 1004.8
20260505101502 73 330 2.0 2.0 0.00 0.00 0.00 39 1005.0
20260505101003 72 232 2.0 2.0 0.00 0.00 0.00 40 1004.9
20260505100501 72 118 3.0 3.0 0.00 0.00 0.00 40 1005.2
20260505100002 73 105 6.0 6.0 0.00 0.00 0.00 40 1005.3
20260505095503 72 252 1.0 1.0 0.00 0.00 0.00 40 1005.3
20260505095002 72 138 4.0 5.0 0.00 0.00 0.00 41 1005.4
20260505094501 72 80 3.0 4.0 0.00 0.00 0.00 40 1005.3
20260505094001 71 120 2.0 3.0 0.00 0.00 0.00 41 1005.4
20260505093501 72 332 4.0 5.0 0.00 0.00 0.00 40 1005.4
20260505093001 72 238 3.0 4.0 0.00 0.00 0.00 41 1005.7
20260505092501 72 298 3.0 3.0 0.00 0.00 0.00 44 1005.7
20260505092001 72 8 3.0 4.0 0.00 0.00 0.00 43 1005.7
20260505091501 71 305 4.0 5.0 0.00 0.00 0.00 44 1005.7
20260505091002 71 218 2.0 3.0 0.00 0.00 0.00 45 1005.9